| time (UTC) | temp C | wind direction | speed KPH | gust KPH | rain 1hr cm | rain 24hr cm | rain mn cm | humidity % | barometer mb |
| 20260507154517 | 13 | 180 | 1.6 | 11.3 | 0.00 | 0.00 | 0.00 | 46 | 1009.7 |
| 20260507153059 | 13 | 113 | 1.6 | 11.3 | 0.00 | 0.00 | 0.00 | 41 | 1009.6 |
| 20260507151539 | 13 | 0.0 | 8.0 | 0.00 | 0.00 | 0.00 | 41 | 1009.6 | |
| 20260507150017 | 13 | 68 | 1.6 | 14.5 | 0.00 | 0.00 | 0.00 | 41 | 1009.5 |
| 20260507144516 | 12 | 203 | 1.6 | 12.9 | 0.00 | 0.00 | 0.00 | 45 | 1009.6 |
| 20260507143035 | 12 | 225 | 1.6 | 8.0 | 0.00 | 0.00 | 0.00 | 44 | 1009.6 |
| 20260507141516 | 12 | 45 | 1.6 | 16.1 | 0.00 | 0.00 | 0.00 | 53 | 1009.7 |
| 20260507140016 | 11 | 0.0 | 4.8 | 0.00 | 0.00 | 0.00 | 54 | 1009.6 | |
| 20260507134517 | 10 | 0.0 | 11.3 | 0.00 | 0.00 | 0.00 | 63 | 1009.6 | |
| 20260507133017 | 9 | 68 | 1.6 | 8.0 | 0.00 | 0.00 | 0.00 | 65 | 1009.6 |
| 20260507131515 | 8 | 0.0 | 3.2 | 0.00 | 0.00 | 0.00 | 73 | 1009.7 | |
| 20260507130016 | 7 | 0.0 | 4.8 | 0.00 | 0.00 | 0.00 | 85 | 1009.6 | |
| 20260507124515 | 6 | 0.0 | 8.0 | 0.00 | 0.00 | 0.00 | 93 | 1009.7 | |
| 20260507123016 | 6 | 0.0 | 1.6 | 0.00 | 0.00 | 0.00 | 98 | 1009.7 | |
| 20260507121517 | 5 | 0.0 | 1.6 | 0.00 | 0.00 | 0.00 | 100 | 1009.7 | |
| 20260507120016 | 5 | 0.0 | 1.6 | 0.00 | 0.00 | 0.00 | 100 | 1009.6 | |
| 20260507114516 | 5 | 0.0 | 0.0 | 0.00 | 0.00 | 0.00 | 100 | 1009.6 | |
| 20260507113017 | 4 | 0.0 | 0.0 | 0.00 | 0.00 | 0.00 | 100 | 1009.5 | |
| 20260507111515 | 4 | 0.0 | 0.0 | 0.00 | 0.00 | 0.00 | 99 | 1009.6 | |
| 20260507110015 | 4 | 0.0 | 0.0 | 0.00 | 0.00 | 0.00 | 99 | 1009.3 | |
| 20260507104516 | 4 | 0.0 | 0.0 | 0.00 | 0.00 | 0.00 | 99 | 1009.0 | |
| 20260507103015 | 4 | 0.0 | 0.0 | 0.00 | 0.00 | 0.00 | 99 | 1009.0 | |
| 20260507101517 | 4 | 0.0 | 0.0 | 0.00 | 0.00 | 0.00 | 99 | 1009.1 | |
| 20260507100017 | 5 | 0.0 | 0.0 | 0.00 | 0.00 | 0.00 | 99 | 1009.0 | |
| 20260507094516 | 5 | 0.0 | 0.0 | 0.00 | 0.00 | 0.00 | 99 | 1009.0 | |
| 20260507093015 | 5 | 0.0 | 0.0 | 0.00 | 0.00 | 0.00 | 99 | 1009.0 | |
| 20260507091536 | 5 | 0.0 | 0.0 | 0.00 | 0.00 | 0.00 | 99 | 1008.8 | |
| 20260507090016 | 5 | 0.0 | 0.0 | 0.00 | 0.00 | 0.00 | 99 | 1008.7 | |
| 20260507084536 | 5 | 0.0 | 0.0 | 0.00 | 0.00 | 0.00 | 98 | 1008.5 | |
| 20260507083016 | 5 | 0.0 | 0.0 | 0.00 | 0.00 | 0.00 | 99 | 1008.5 | |
| 20260507081516 | 5 | 0.0 | 0.0 | 0.00 | 0.00 | 0.00 | 98 | 1008.4 | |
| 20260507080016 | 5 | 0.0 | 0.0 | 0.00 | 0.00 | 0.00 | 98 | 1008.3 | |
| 20260507074537 | 5 | 0.0 | 0.0 | 0.00 | 0.00 | 0.00 | 98 | 1008.3 | |
| 20260507073016 | 5 | 0.0 | 0.0 | 0.00 | 0.00 | 0.00 | 97 | 1008.3 | |
| 20260507071516 | 6 | 0.0 | 0.0 | 0.00 | 0.08 | 0.00 | 97 | 1008.3 | |
| 20260507070017 | 6 | 0.0 | 0.0 | 0.00 | 0.10 | 0.00 | 97 | 1008.4 | |
| 20260507064517 | 6 | 0.0 | 0.0 | 0.00 | 0.15 | 0.00 | 97 | 1008.5 | |
| 20260507063016 | 6 | 0.0 | 0.0 | 0.00 | 0.20 | 0.00 | 97 | 1008.5 | |
| 20260507061516 | 6 | 0.0 | 0.0 | 0.00 | 0.23 | 0.00 | 96 | 1008.6 | |
| 20260507060058 | 6 | 0.0 | 0.0 | 0.00 | 0.23 | 0.00 | 96 | 1008.5 | |
| 20260507054516 | 6 | 0.0 | 0.0 | 0.00 | 0.28 | 0.00 | 95 | 1008.6 | |
| 20260507053016 | 6 | 0.0 | 0.0 | 0.00 | 0.36 | 0.00 | 95 | 1008.6 | |
| 20260507051517 | 7 | 0.0 | 0.0 | 0.00 | 0.48 | 0.00 | 95 | 1008.6 | |
| 20260507050038 | 7 | 0.0 | 0.0 | 0.00 | 0.51 | 0.00 | 95 | 1008.8 | |
| 20260507044517 | 7 | 0.0 | 0.0 | 0.00 | 0.58 | 0.00 | 94 | 1008.8 | |
| 20260507043058 | 7 | 0.0 | 0.0 | 0.00 | 0.58 | 0.00 | 94 | 1008.8 | |
| 20260507041516 | 7 | 0.0 | 0.0 | 0.00 | 0.58 | 0.00 | 94 | 1008.6 | |
| 20260507040017 | 8 | 0.0 | 0.0 | 0.00 | 0.69 | 0.00 | 94 | 1008.7 | |
| 20260507034517 | 8 | 0.0 | 0.0 | 0.00 | 0.69 | 0.69 | 94 | 1008.5 | |
| 20260507033017 | 8 | 0.0 | 0.0 | 0.00 | 0.69 | 0.69 | 94 | 1008.6 | |
| 20260507031517 | 8 | 0.0 | 0.0 | 0.00 | 0.69 | 0.69 | 94 | 1008.6 | |
| 20260507030017 | 8 | 0.0 | 0.0 | 0.00 | 0.69 | 0.69 | 93 | 1008.9 | |
| 20260507024517 | 8 | 0.0 | 0.0 | 0.00 | 0.69 | 0.69 | 92 | 1008.8 | |
| 20260507023017 | 8 | 0.0 | 0.0 | 0.00 | 0.69 | 0.69 | 91 | 1008.6 | |
| 20260507021517 | 9 | 0.0 | 0.0 | 0.00 | 0.69 | 0.69 | 89 | 1008.6 | |
| 20260507020058 | 9 | 0.0 | 0.0 | 0.00 | 0.69 | 0.69 | 88 | 1008.5 | |
| 20260507014517 | 10 | 0.0 | 0.0 | 0.00 | 0.69 | 0.69 | 87 | 1008.4 | |
| 20260507013017 | 10 | 0.0 | 0.0 | 0.00 | 0.71 | 0.69 | 86 | 1008.2 | |
| 20260507011517 | 11 | 0.0 | 0.0 | 0.00 | 0.71 | 0.69 | 84 | 1008.0 | |
| 20260507010017 | 11 | 0.0 | 0.0 | 0.00 | 0.74 | 0.69 | 81 | 1007.9 | |
| 20260507004517 | 12 | 0.0 | 0.0 | 0.00 | 0.79 | 0.69 | 79 | 1008.0 | |
| 20260507003139 | 12 | 0.0 | 0.0 | 0.00 | 0.84 | 0.69 | 75 | 1007.9 | |
| 20260507001517 | 13 | 0.0 | 0.0 | 0.00 | 0.84 | 0.69 | 70 | 1007.7 | |
| 20260507000017 | 13 | 0.0 | 1.6 | 0.00 | 0.84 | 0.69 | 63 | 1007.5 | |
| 20260506234519 | 13 | 0.0 | 8.0 | 0.00 | 0.84 | 0.69 | 61 | 1007.3 | |
| 20260506233017 | 13 | 68 | 1.6 | 11.3 | 0.00 | 0.86 | 0.69 | 60 | 1007.5 |
| 20260506231519 | 13 | 0.0 | 9.7 | 0.00 | 0.89 | 0.69 | 60 | 1007.3 | |
| 20260506230017 | 14 | 0.0 | 6.4 | 0.00 | 0.89 | 0.69 | 58 | 1007.1 | |
| 20260506224517 | 14 | 0.0 | 4.8 | 0.00 | 0.89 | 0.69 | 57 | 1007.3 | |
| 20260506223017 | 14 | 0.0 | 6.4 | 0.00 | 0.89 | 0.69 | 58 | 1007.2 | |
| 20260506221519 | 15 | 0.0 | 4.8 | 0.00 | 0.89 | 0.69 | 56 | 1007.4 | |
| 20260506220017 | 14 | 0.0 | 4.8 | 0.00 | 0.89 | 0.69 | 56 | 1007.6 | |
| 20260506214517 | 15 | 0.0 | 4.8 | 0.00 | 0.89 | 0.69 | 60 | 1007.8 | |
| 20260506213017 | 15 | 0.0 | 4.8 | 0.00 | 0.89 | 0.69 | 56 | 1007.5 | |
| 20260506211519 | 15 | 0.0 | 9.7 | 0.00 | 0.89 | 0.69 | 54 | 1007.4 | |
| 20260506210018 | 15 | 45 | 1.6 | 11.3 | 0.00 | 0.91 | 0.69 | 51 | 1007.0 |
| 20260506204517 | 15 | 0.0 | 6.4 | 0.00 | 0.94 | 0.69 | 58 | 1007.1 | |
| 20260506203037 | 15 | 0.0 | 4.8 | 0.00 | 0.94 | 0.69 | 53 | 1007.1 | |
| 20260506201517 | 15 | 0.0 | 1.6 | 0.00 | 0.94 | 0.69 | 55 | 1007.4 | |
| 20260506200019 | 15 | 0.0 | 4.8 | 0.00 | 0.99 | 0.69 | 52 | 1007.3 | |
| 20260506194539 | 14 | 0.0 | 4.8 | 0.00 | 0.99 | 0.69 | 56 | 1007.5 | |
| 20260506193015 | 15 | 0.0 | 8.0 | 0.00 | 1.07 | 0.69 | 57 | 1007.2 | |
| 20260506191515 | 15 | 0.0 | 8.0 | 0.00 | 1.14 | 0.69 | 54 | 1007.0 | |
| 20260506190015 | 15 | 45 | 1.6 | 17.7 | 0.00 | 1.19 | 0.69 | 54 | 1006.8 |
| 20260506184515 | 15 | 45 | 1.6 | 11.3 | 0.00 | 1.24 | 0.69 | 52 | 1006.8 |
| 20260506183015 | 16 | 45 | 1.6 | 11.3 | 0.00 | 1.24 | 0.69 | 52 | 1006.7 |
| 20260506181517 | 16 | 45 | 1.6 | 11.3 | 0.00 | 1.24 | 0.69 | 49 | 1006.6 |
| 20260506180022 | 15 | 45 | 1.6 | 11.3 | 0.00 | 1.24 | 0.69 | 52 | 1006.8 |
| 20260506174517 | 15 | 45 | 1.6 | 9.7 | 0.00 | 1.24 | 0.69 | 56 | 1007.0 |
| 20260506173015 | 15 | 45 | 1.6 | 14.5 | 0.00 | 1.24 | 0.69 | 55 | 1007.3 |
| 20260506171535 | 15 | 0.0 | 9.7 | 0.00 | 1.24 | 0.69 | 56 | 1007.3 | |
| 20260506170015 | 14 | 0.0 | 11.3 | 0.00 | 1.24 | 0.69 | 61 | 1007.4 | |
| 20260506164515 | 13 | 0.0 | 8.0 | 0.00 | 1.24 | 0.69 | 61 | 1007.6 | |
| 20260506163016 | 13 | 45 | 1.6 | 11.3 | 0.00 | 1.24 | 0.69 | 60 | 1007.5 |
| 20260506161516 | 13 | 68 | 1.6 | 11.3 | 0.00 | 1.24 | 0.69 | 60 | 1007.6 |
| 20260506160036 | 13 | 45 | 1.6 | 12.9 | 0.00 | 1.24 | 0.69 | 62 | 1007.4 |